[[{"header":{"parameterUnit":"m.s-1","parameterCategory":1,"la1":30.2991,"la2":30.254,"lo1":-89.0895,"lo2":-89.0444,"dy":0.0017,"dx":0.0017,"nx":28,"ny":28,"refTime":"2025-03-13T21:00:00:Z","depth":0,"parameterNumber":2,"parameterNumberName":"U-component_of_WINDS"},"data":[0,0,0,0,0,0,0,0,0,0,0,0,0,0,0,0,0,0,0,0,0,0,0,0,0,0,0,0,0,0,0,0,0,0,0,0,0,0,0,0,0,0,0,0,0,0,0,0,0,0,0,0,0,0,0,0,0,0,-2.5808,-2.5808,0,-2.5864,-2.5864,-2.5865,-2.5861,-2.586,-2.5859,-2.5858,-2.5913,-2.5915,-2.5918,0,0,0,0,0,0,0,0,0,0,0,0,0,-2.5694,-2.5696,-2.5808,-2.5808,-2.5809,-2.5864,-2.5864,-2.5865,-2.5861,-2.586,-2.5859,-2.5858,-2.5913,-2.5915,-2.5918,0,0,0,0,0,0,0,0,0,0,0,0,0,-2.5746,-2.5697,-2.5807,-2.5813,-2.5814,-2.5863,-2.5864,-2.5865,-2.5861,-2.586,-2.5858,-2.5857,-2.5912,-2.5915,-2.5918,-2.5964,0,0,-2.5929,-2.593,0,0,0,0,0,0,0,0,-2.5743,-2.575,-2.5812,-2.5813,-2.5814,-2.5854,-2.5845,-2.5898,-2.5861,-2.5843,-2.5858,-2.5857,-2.5894,-2.5899,-2.5912,-2.5967,-2.5969,-2.5929,-2.5931,-2.5932,-2.5933,0,0,0,0,0,0,0,-2.574,-2.5748,-2.583,-2.5813,-2.5814,-2.5813,-2.5818,-2.5855,-2.5875,-2.5845,-2.5844,-2.5851,-2.5895,-2.5909,-2.5914,-2.597,-2.5929,-2.5932,-2.5934,-2.5935,-2.6064,-2.6065,0,0,0,0,0,0,-2.5735,-2.5745,-2.5828,-2.5831,-2.5775,-2.5816,-2.5822,-2.5842,-2.5875,-2.5878,-2.5852,-2.5851,-2.5904,-2.591,-2.5915,-2.597,-2.5932,-2.5935,-2.5937,-2.6063,-2.6064,-2.6066,0,0,0,0,0,0,-2.5733,-2.5743,-2.5826,-2.5788,-2.5799,-2.5819,-2.5842,-2.5844,-2.5858,-2.5881,-2.5884,-2.5863,-2.5903,-2.5911,-2.5952,-2.5972,-2.5937,-2.594,-2.6061,-2.6063,-2.6065,-2.6081,0,0,0,0,0,0,-2.5729,-2.5742,-2.576,-2.5789,-2.5801,-2.5862,-2.5843,-2.5846,-2.5865,-2.5863,-2.5892,-2.5895,-2.5903,-2.5947,-2.5955,-2.5976,-2.5943,-2.6059,-2.6062,-2.6064,-2.6079,-2.6083,-2.6087,0,0,0,0,0,-2.5725,-2.5762,-2.5761,-2.5771,-2.5824,-2.5863,-2.587,-2.5879,-2.5866,-2.5884,-2.5898,-2.5894,-2.5969,-2.5951,-2.5961,-2.5983,-2.6058,-2.6061,-2.6064,-2.6077,-2.6082,-2.6087,0,0,0,0,0,0,-2.5734,-2.5766,-2.5765,-2.5812,-2.5835,-2.5862,-2.5885,-2.5884,-2.5911,-2.5908,-2.5917,-2.5924,-2.5965,-2.5978,-2.5958,-2.6029,-2.6012,-2.6017,-2.6018,-2.6024,-2.6028,-2.6023,-2.5946,0,0,0,0,0,-2.5742,-2.5771,-2.5797,-2.5836,-2.5848,-2.5865,-2.5882,-2.5887,-2.5911,-2.592,-2.5937,-2.596,-2.5989,-2.6007,-2.6035,-2.6081,-2.6087,-2.6101,-2.6105,-2.6109,-2.6112,-2.6137,-2.6143,-2.6076,-2.6076,-2.6076,0,0,-2.5757,-2.5778,-2.5796,-2.5838,-2.5857,-2.5887,-2.5873,-2.5905,-2.5927,-2.5925,-2.5965,-2.5978,-2.6004,-2.6048,-2.6068,-2.606,-2.6133,-2.6113,-2.6115,-2.6117,-2.6141,-2.6147,-2.6152,-2.6078,-2.6078,-2.6078,0,0,-2.58,-2.582,-2.5853,-2.5872,-2.5901,-2.5912,-2.592,-2.5948,-2.5957,-2.5997,-2.5996,-2.6022,-2.6072,-2.609,-2.6105,-2.6156,-2.6153,-2.6165,-2.6186,-2.621,-2.6215,-2.622,-2.6236,-2.6242,-2.6169,-2.6169,-2.6169,0,-2.5815,-2.5861,-2.5871,-2.5903,-2.5921,-2.5922,-2.5956,-2.5974,-2.6009,-2.6021,-2.6013,-2.6074,-2.6092,-2.6139,-2.6152,-2.6165,-2.6173,-2.6161,-2.6214,-2.6219,-2.6223,-2.6239,-2.6245,-2.617,-2.617,-2.617,-2.617,0,-2.5877,-2.5909,-2.5933,-2.5968,-2.5989,-2.6022,-2.6036,-2.6056,-2.606,-2.6071,-2.6112,-2.6133,-2.6165,-2.6177,-2.618,-2.6225,-2.6219,-2.6212,-2.6195,-2.623,-2.6245,-2.6251,-2.6172,-2.6171,-2.6171,-2.6171,0,0,-2.5925,-2.5966,-2.5975,-2.599,-2.6022,-2.6046,-2.6079,-2.611,-2.6127,-2.6152,-2.6178,-2.6221,-2.6214,-2.6232,-2.6238,-2.6259,-2.6295,-2.6249,-2.625,-2.6255,-2.6344,-2.6347,-2.6354,-2.6294,-2.6296,-2.6297,-2.6341,0,-2.597,-2.6029,-2.6039,-2.609,-2.6119,-2.612,-2.6149,-2.6171,-2.6183,-2.6208,-2.6221,-2.625,-2.6241,-2.6251,-2.6273,-2.6286,-2.6313,-2.6284,-2.6318,-2.6319,-2.6309,-2.6362,-2.6366,-2.6407,-2.6347,-2.6348,-2.6349,0,-2.603,-2.6056,-2.611,-2.6138,-2.615,-2.6176,-2.6205,-2.623,-2.6255,-2.6262,-2.6282,-2.6285,-2.6319,-2.6302,-2.6347,-2.6327,-2.6342,-2.6351,-2.6353,-2.6354,-2.6335,-2.6364,-2.6421,-2.6426,-2.6358,-2.6358,-2.6357,0,-2.6057,-2.6107,-2.6145,-2.6159,-2.6192,-2.621,-2.6224,-2.6248,-2.6266,-2.6292,-2.6304,-2.6333,-2.6348,-2.637,-2.6381,-2.6368,-2.6425,-2.6409,-2.6431,-2.643,-2.6441,-2.644,-2.6499,-2.6454,-2.6454,-2.6454,-2.6453,0,-2.6105,-2.6137,-2.6158,-2.6181,-2.6217,-2.6229,-2.6264,-2.6279,-2.63,-2.6325,-2.6329,-2.6352,-2.6366,-2.6392,-2.64,-2.6435,-2.6443,-2.6449,-2.645,-2.6447,-2.6446,-2.6456,-2.6452,-2.6455,-2.6455,-2.6455,-2.6454,0,-2.6141,-2.6156,-2.6198,-2.6226,-2.6234,-2.6259,-2.6283,-2.6306,-2.6318,-2.635,-2.6359,-2.6378,-2.6408,-2.6421,-2.6459,-2.6464,-2.6504,-2.6505,-2.6496,-2.6496,-2.6516,-2.6513,-2.6581,-2.659,-2.6541,-2.6541,-2.6542,0,-2.6169,-2.6194,-2.6225,-2.6243,-2.6258,-2.6287,-2.6305,-2.6318,-2.6337,-2.6367,-2.6386,-2.6416,-2.6441,-2.6489,-2.6506,-2.6534,-2.6534,-2.6556,-2.6538,-2.6534,-2.6532,-2.653,-2.6532,-2.6559,-2.6559,-2.656,-2.656,0,-2.6217,-2.6224,-2.6251,-2.6281,-2.6303,-2.6327,-2.635,-2.6364,-2.6381,-2.6402,-2.6433,-2.6452,-2.6491,-2.652,-2.655,-2.6564,-2.6564,-2.6566,-2.6572,-2.6568,-2.6561,-2.6563,-2.6502,-2.6564,-2.6563,-2.6563,-2.6563,-2.6563,-2.6249,-2.6271,-2.6296,-2.6326,-2.6345,-2.6367,-2.6389,-2.6405,-2.6431,-2.6463,-2.647,-2.6502,-2.6526,-2.6566,-2.6581,-2.6607,-2.6601,-2.661,-2.6612,-2.6614,-2.6614,-2.6559,-2.6612,-2.6612,-2.6612,-2.6612,-2.6612,0,-2.6296,-2.6312,-2.634,-2.6373,-2.6396,-2.6396,-2.6422,-2.6441,-2.647,-2.6493,-2.6517,-2.6553,-2.6582,-2.6601,-2.663,-2.6647,-2.6647,-2.6654,-2.6651,-2.6654,-2.6618,-2.6609,-2.6652,-2.6652,-2.6652,-2.6652,-2.6652,-2.6652,-2.6323,-2.6359,-2.6369,-2.6415,-2.6431,-2.6464,-2.6478,-2.6498,-2.6516,-2.6556,-2.658,-2.6593,-2.6614,-2.6645,-2.6671,-2.6676,-2.6685,-2.6692,-2.6696,-2.6661,-2.6657,-2.6653,-2.6644,-2.6694,-2.6694,-2.673,-2.673,-2.673]},{"header":{"parameterUnit":"m.s-1","parameterCategory":1,"la1":30.2991,"la2":30.254,"lo1":-89.0895,"lo2":-89.0444,"dy":0.0017,"dx":0.0017,"nx":28,"ny":28,"refTime":"2025-03-13T21:00:00:Z","depth":0,"parameterNumber":3,"parameterNumberName":"V-component_of_WINDS"},"data":[0,0,0,0,0,0,0,0,0,0,0,0,0,0,0,0,0,0,0,0,0,0,0,0,0,0,0,0,0,0,0,0,0,0,0,0,0,0,0,0,0,0,0,0,0,0,0,0,0,0,0,0,0,0,0,0,0,0,2.5496,2.5497,0,2.558,2.5581,2.5582,2.5588,2.5587,2.5586,2.5586,2.567,2.5673,2.5676,0,0,0,0,0,0,0,0,0,0,0,0,0,2.5344,2.5347,2.5496,2.5497,2.5498,2.558,2.5581,2.5582,2.5588,2.5587,2.5586,2.5585,2.5669,2.5673,2.5677,0,0,0,0,0,0,0,0,0,0,0,0,0,2.5417,2.5348,2.5496,2.5511,2.5514,2.5579,2.5581,2.5582,2.5589,2.5587,2.5586,2.5585,2.5668,2.5673,2.5677,2.5733,0,0,2.5691,2.5693,0,0,0,0,0,0,0,0,2.5413,2.5422,2.5508,2.551,2.5513,2.5572,2.5558,2.5633,2.5589,2.556,2.5586,2.5584,2.5639,2.5646,2.5664,2.5737,2.5741,2.5692,2.5695,2.5697,2.5698,0,0,0,0,0,0,0,2.5408,2.5419,2.5529,2.5509,2.5512,2.5515,2.5523,2.5572,2.5606,2.5563,2.5563,2.5573,2.564,2.566,2.5666,2.5742,2.5692,2.5696,2.5699,2.57,2.5868,2.5869,0,0,0,0,0,0,2.54,2.5415,2.5527,2.5532,2.5459,2.5518,2.5528,2.5555,2.5605,2.5612,2.5574,2.5573,2.5653,2.5661,2.5669,2.574,2.5697,2.5701,2.5704,2.5866,2.5868,2.587,0,0,0,0,0,0,2.5396,2.541,2.5523,2.5473,2.5488,2.5522,2.5552,2.5557,2.5577,2.5614,2.562,2.5588,2.5652,2.5663,2.5718,2.5743,2.5703,2.5707,2.5864,2.5867,2.5869,2.5881,0,0,0,0,0,0,2.5392,2.5408,2.5429,2.5474,2.5491,2.557,2.5553,2.556,2.5585,2.5584,2.5629,2.5635,2.5652,2.5711,2.5723,2.5749,2.5711,2.5862,2.5865,2.5868,2.5879,2.5884,2.5888,0,0,0,0,0,2.5386,2.5429,2.5431,2.5444,2.5518,2.5571,2.5581,2.5599,2.5587,2.5609,2.5633,2.5634,2.5738,2.5716,2.573,2.5758,2.5861,2.5864,2.5868,2.5877,2.5883,2.5888,0,0,0,0,0,0,2.5386,2.5435,2.5437,2.5495,2.5529,2.5572,2.5601,2.5605,2.5643,2.5641,2.5661,2.5671,2.5726,2.5747,2.5722,2.5816,2.5798,2.5805,2.58,2.5807,2.5811,2.5806,2.5715,0,0,0,0,0,2.5392,2.5432,2.5472,2.552,2.5537,2.5566,2.559,2.5601,2.5637,2.5651,2.5679,2.5714,2.5756,2.5782,2.5821,2.5882,2.5893,2.5908,2.5912,2.5916,2.5922,2.5958,2.5966,2.5882,2.5882,2.5882,0,0,2.5406,2.5438,2.5462,2.5521,2.5548,2.5589,2.5578,2.5621,2.5652,2.5658,2.5712,2.5734,2.5775,2.5833,2.5861,2.5853,2.5948,2.5921,2.5924,2.5928,2.5963,2.5971,2.5978,2.5885,2.5884,2.5884,0,0,2.5454,2.5481,2.5524,2.5553,2.5595,2.5615,2.5625,2.5668,2.5684,2.5739,2.5745,2.5782,2.5851,2.5881,2.5905,2.5966,2.5968,2.5978,2.6003,2.6038,2.6044,2.6051,2.6074,2.6082,2.5983,2.5983,2.5983,0,2.5466,2.5528,2.5546,2.559,2.5617,2.5625,2.567,2.5696,2.575,2.5768,2.5758,2.5848,2.5875,2.5942,2.5957,2.5976,2.599,2.5973,2.6042,2.6048,2.6054,2.6077,2.6086,2.5984,2.5984,2.5984,2.5984,0,2.5542,2.5585,2.5615,2.5667,2.5697,2.5741,2.5768,2.5796,2.5805,2.5825,2.5883,2.5916,2.5964,2.598,2.5989,2.6049,2.6044,2.6038,2.602,2.6063,2.6085,2.6094,2.5986,2.5985,2.5985,2.5985,0,0,2.559,2.5654,2.5665,2.569,2.5738,2.5772,2.5817,2.5865,2.589,2.5926,2.5966,2.6026,2.6021,2.6049,2.6061,2.6091,2.614,2.6082,2.6083,2.6093,2.6212,2.6217,2.6227,2.6142,2.6144,2.6145,2.6209,0,2.5644,2.5726,2.5745,2.5815,2.5856,2.5865,2.5905,2.5939,2.596,2.5999,2.6022,2.6065,2.6055,2.6072,2.6102,2.6128,2.6165,2.6123,2.618,2.6182,2.6172,2.6238,2.6244,2.6303,2.6218,2.6219,2.622,0,2.5718,2.5758,2.5833,2.5878,2.5896,2.5932,2.5978,2.6014,2.6054,2.6067,2.6099,2.6109,2.6157,2.6137,2.6206,2.6177,2.6202,2.6218,2.6221,2.6228,2.6205,2.625,2.6322,2.6332,2.6234,2.6233,2.6232,0,2.5749,2.5821,2.5876,2.5897,2.595,2.5976,2.5999,2.6038,2.6066,2.6106,2.6125,2.617,2.6195,2.6231,2.6253,2.6235,2.632,2.6301,2.6334,2.6334,2.6353,2.6352,2.6432,2.6365,2.6365,2.6365,2.6365,0,2.5809,2.5855,2.5891,2.5925,2.5977,2.5999,2.605,2.6074,2.6108,2.6148,2.6157,2.6194,2.622,2.6261,2.6278,2.6334,2.6344,2.6358,2.6362,2.6358,2.6357,2.6375,2.6373,2.6367,2.6367,2.6366,2.6366,0,2.5853,2.5879,2.5939,2.5986,2.5999,2.6035,2.6075,2.6109,2.6131,2.618,2.6193,2.6227,2.6276,2.6301,2.6361,2.6373,2.6437,2.6437,2.6424,2.6426,2.6459,2.6456,2.6556,2.6571,2.6492,2.6492,2.6493,0,2.589,2.5926,2.5977,2.6004,2.6028,2.6072,2.6101,2.6124,2.6154,2.6204,2.6232,2.6282,2.6322,2.64,2.643,2.6477,2.6481,2.6512,2.6488,2.6483,2.6484,2.6483,2.6487,2.6517,2.6518,2.6519,2.6519,0,2.5954,2.5966,2.6008,2.6055,2.609,2.6128,2.6166,2.6188,2.6217,2.6251,2.6301,2.6333,2.6396,2.6445,2.6495,2.6519,2.6525,2.6526,2.6537,2.6534,2.6526,2.6533,2.6438,2.6524,2.6524,2.6523,2.6523,2.6523,2.5998,2.6031,2.6073,2.612,2.6151,2.6186,2.6221,2.6248,2.629,2.6344,2.6355,2.6409,2.645,2.6517,2.6543,2.6586,2.658,2.6594,2.6599,2.6603,2.6605,2.6517,2.6595,2.6595,2.6595,2.6595,2.6595,0,2.6065,2.6093,2.6136,2.6189,2.6226,2.6228,2.6271,2.6302,2.635,2.6387,2.6428,2.6487,2.6536,2.6571,2.662,2.6649,2.6653,2.6661,2.666,2.6667,2.6607,2.6594,2.6657,2.6657,2.6657,2.6657,2.6657,2.6657,2.6104,2.6162,2.6179,2.6252,2.6279,2.6333,2.6357,2.6391,2.6421,2.6487,2.6528,2.6551,2.6588,2.6641,2.6686,2.6695,2.6714,2.6723,2.6733,2.6677,2.667,2.6664,2.6652,2.6726,2.6726,2.6789,2.6789,2.679]}]]